Regional Weather Roundup
Issued by NWS

Home | Current Version | Previous Version | Graphics & Text | Print | Product List | Glossary On
Versions: 1 2 3 4 5 6 7 8 9 10 11 12 13 14 15 16 17 18 19 20 21 22 23 24 25 26 27 28 29 30 31 32 33 34 35 36 37 38 39 40 41 42 43 44 45 46 47 48 49 50
000
ASUS43 KMKX 170400
RWRWI

WISCONSIN REGIONAL WEATHER ROUNDUP
NATIONAL WEATHER SERVICE MILWAUKEE/SULLIVAN WI
1000 PM CST TUE JAN 16 2018

NOTE: "FAIR" INDICATES FEW OR NO CLOUDS BELOW 12,000 FEET WITH NO
SIGNIFICANT WEATHER AND/OR OBSTRUCTIONS TO VISIBILITY.

WIZ001-002-006>008-014>016-023>028-170500-
NORTHWEST WISCONSIN

CITY           SKY/WX    TMP DP  RH WIND       PRES   REMARKS
SUPERIOR ARPT  FAIR       6  -2  70 SW13      30.44F WCI -11
ASHLAND        FAIR       8   1  73 SW12G21   30.42F WCI  -7
HAYWARD        FAIR       1  -5  75 SW5       30.44F WCI  -9
SIREN          FAIR       1  -5  76 SW8       30.49F WCI -13
CUMBERLAND     FAIR       0  -6  78 W8        30.47F WCI -15
RICE LAKE      FAIR       1  -4  79 CALM      30.50F
CHETEK         FAIR      -3  -6  87 MISG      30.50S
LADYSMITH      FAIR       1  -3  82 SW3       30.47S
EAU CLAIRE     NOT AVBL
MENOMONIE      FAIR       0  -5  80 SW6       30.53F WCI -12
NEW RICHMOND   FAIR      -2  -7  80 SW5       30.52F WCI -12
OSCEOLA        FAIR      -3  -8  80 SW5       30.56S WCI -14
$$

WIZ003>005-009-010-017-018-170500-
NORTH CENTRAL WISCONSIN

CITY           SKY/WX    TMP DP  RH WIND       PRES   REMARKS
MANITOWISH WTR FAIR       5   3  93 W7        30.35F WCI  -7
ARBOR VITAE    FAIR       9   6  88 W5        30.35F WCI   1
WOODRUFF       FAIR       9   6  88 W5        30.35F WCI   1
RHINELANDER    FAIR       4   1  88 W9        30.36F WCI -10
EAGLE RIVER    FAIR       4   0  83 W6        30.34F WCI  -6
LAND O LAKES   FAIR       4   1  89 W5        30.35F WCI  -5
PHILLIPS       FAIR       3   1  90 SW6       30.39F WCI  -8
TOMAHAWK       FAIR       6   2  86 W5        30.40S WCI  -3
MEDFORD        FAIR       1  -2  86 W7        30.42S WCI -12
MERRILL        FAIR       5   3  91 W7        30.43S WCI  -7
$$

WIZ029-030-035-036-043>047-170500-
CENTRAL WISCONSIN

CITY           SKY/WX    TMP DP  RH WIND       PRES   REMARKS
WAUSAU         FAIR       4   1  88 W8        30.43S WCI  -9
MOSINEE        CLEAR      3   1  92 W7        30.45F WCI  -9
MARSHFIELD     FAIR       1  -2  87 W8        30.45F WCI -13
STEVENS POINT  FAIR       6   3  88 W6        30.47F WCI  -5
WAUPACA        FAIR      14   8  78 W8        30.48F WCI   3
WAUTOMA        FAIR       7   4  87 W8        30.50F WCI  -6
WISC RAPIDS    FAIR       5   0  79 W8        30.50F WCI  -8
CAMP DOUGLAS   CLEAR      3   0  85 W6        30.51F WCI  -8
$$

WIZ011>013-019>022-031-037>040-048>050-170500-
NORTHEAST WISCONSIN

CITY           SKY/WX    TMP DP  RH WIND       PRES   REMARKS
ANTIGO         FAIR       7   4  89 W7        30.39F WCI  -5
SHAWANO        FAIR      16  10  78 W3        30.45F
OCONTO         FAIR       0  -4  85 CALM      30.45F
STURGEON BAY   FAIR       5   2  87 SW3       30.45F
GREEN BAY      FAIR      10   5  80 W7        30.46F WCI  -1
MANITOWOC      MOCLDY    13  10  88 W6        30.48S WCI   4
APPLETON       PTCLDY    10   3  72 W10       30.45S WCI  -3
CLINTONVILLE   FAIR      14   9  79 W9        30.46F WCI   2
OSHKOSH        FAIR      13   8  81 W8        30.48S WCI   2
$$

WIZ032>034-041-042-053>061-170500-
SOUTHWEST WISCONSIN

CITY           SKY/WX    TMP DP  RH WIND       PRES   REMARKS
LA CROSSE      FAIR       2  -4  76 W7        30.58F WCI -11
SPARTA         FAIR       4   1  88 CALM      30.56S
VIROQUA        FAIR       1  -1  94 W7        30.51S WCI -12
BOSCOBEL       FAIR       4   0  83 SW7       30.60R WCI  -8
PRAIRIE DU CHI FAIR      -1  -6  78 W3        30.61S
PLATTEVILLE    FAIR       3   1  91 W6        30.56S WCI  -8
$$

WIZ056-057-062-063-064-067-068-170500-
SOUTH CENTRAL WISCONSIN

CITY           SKY/WX    TMP DP  RH WIND       PRES   REMARKS
REEDSBURG      FAIR       6   4  91 CALM      30.52F
BARABOO/DELLS  FAIR       7   3  86 CALM      30.51F
LONE ROCK      FAIR       4   2  91 W6        30.57S WCI  -7
MINERAL POINT  FAIR       5   5 100 W10       30.52F WCI -10
MADISON        FAIR       9   4  80 CALM      30.52F
MIDDLETON      FAIR       9   5  83 W6        30.53S WCI  -1
WATERTOWN      FAIR      10   8  95 CALM      30.51S
MONROE         FAIR       9   5  85 W13       30.52S WCI  -7
JANESVILLE     FAIR      10   9  92 W6        30.53F WCI   1
$$

WIZ051-052-058>065-066-070>072-170500-
SOUTHEAST WISCONSIN

CITY           SKY/WX    TMP DP  RH WIND       PRES   REMARKS
MILWAUKEE      FAIR      16  11  80 W6        30.51S WCI   7
WAUKESHA       FAIR      10   9  92 W8        30.50F WCI  -1
MILWAUKEE/TIMM FAIR      12   9  85 W6        30.51S WCI   3
RACINE         FAIR      12   8  84 W7        30.53S WCI   1
BURLINGTON     FAIR       4   0  85 CALM      30.51F
KENOSHA        FAIR       9   5  84 W6        30.51S WCI  -1
FOND DU LAC    FAIR      15   8  73 W7        30.49S WCI   5
SHEBOYGAN      FAIR       9   7  92 SW5       30.48S WCI   1
WEST BEND      FAIR      14  12  92 W7        30.48S WCI   4
JUNEAU         MOCLDY    13   8  81 W5        30.50F WCI   5
$$

LSZ147-162-170500-
LAKE SUPERIOR

STATION/POSITION TIME  TEMP    WIND        PRES    WAVE
                       AIR SEA DIR/SP/G            HT/PER
                 (UTC) (F)     (DEG/KT/KT) (MB)    (FT/S)
DEVILS ISLAND    0300   17     250/ 25/ 30 1030.6F
SAXON HARBOR     0340   11     210/  6/ 13 1029.8F
$$

LMZ867-665-643>646-170500-
LAKE MICHIGAN

STATION/POSITION TIME  TEMP    WIND        PRES    WAVE
                       AIR SEA DIR/SP/G            HT/PER
                 (UTC) (F)     (DEG/KT/KT) (MB)    (FT/S)
NORTHPORT PIER   0340   12     240/  4/ 10 1030.5F
KEWAUNEE LAKESHO 0330   12     300/  3/  4 1030.7F
SHEBOYGAN LAKESH 0300   15     260/  9/ 10 1033.6F
PORT WASHINGTON  0330   15     290/  4/  7 1033.5F
MILWAUKEE LAKESH 0330   17     280/  9/ 11   N/A
KENOSHA   LAKESH 0300   14     280/  9/ 11 1033.2
$$

TC  - TEMPERATURE IN CELSIUS
VSB - VISIBILITY IN STATUTE MILES
WCI - WIND CHILL INDEX
HX  - HEAT INDEX





USA.gov is the U.S. government's official web portal to all federal, state and local government web resources and services.